Regional Weather Roundup
Issued by NWS

Home | Current Version | Previous Version | Graphics & Text | Print | Product List | Glossary On
Versions: 1 2 3 4 5 6 7 8 9 10 11 12 13 14 15 16 17 18 19 20 21 22 23 24 25 26 27 28 29 30 31 32 33 34 35 36 37 38 39 40 41 42 43 44 45 46 47 48 49 50
000
ASUS43 KLSX 240459
RWRMO

WEATHER SUMMARY FOR MISSOURI
NATIONAL WEATHER SERVICE SPRINGFIELD MO
1200 AM CDT MON JUL 24 2017

NOTE: "FAIR" INDICATES FEW OR NO CLOUDS BELOW 12,000 FEET WITH NO
       SIGNIFICANT WEATHER AND/OR OBSTRUCTIONS TO VISIBILITY.
       CURRENT SKY AND/OR WEATHER CONDITIONS ARE NOT AVAILABLE FOR
       CHILLICOTHE AND FARMINGTON.

MOZ001>031-035>038-043-044-053-054-240600-
...NORTHERN AND WESTERN MISSOURI...

CITY           SKY/WX    TMP DP  RH WIND       PRES   REMARKS
KANSAS CTY INT CLEAR     76  70  82 NE9       29.96R
KANSAS C DTWN  CLEAR     82  71  69 NE5       29.94R
LEE`S SUMMIT   CLOUDY    81  74  79 N9        29.96R
ST JOSEPH      MOCLDY    72  69  90 N5        29.97R
CHILLICOTHE      N/A     75  66  73 CALM      29.97R
KIRKSVILLE     CLEAR     70  64  81 NE5       29.97S

$$
MOZ066>068-077>081-088>096-101>105-240600-
...SOUTHWEST MISSOURI...

CITY           SKY/WX    TMP DP  RH WIND       PRES   REMARKS
SPRINGFIELD    MOCLDY    77  71  82 NW3       29.95R
JOPLIN         PTCLDY    76  72  87 S3        29.94S

$$
MOZ032>034-039>042-045>050-055>058-069>072-240600-
...CENTRAL MISSOURI...

CITY           SKY/WX    TMP DP  RH WIND       PRES   REMARKS
COLUMBIA       CLEAR     77  71  82 NE13      29.91F
JEFFERSON CITY CLEAR     75  73  93 CALM      29.89F
ROLLA          PTCLDY    72  68  87 CALM      29.92F
SEDALIA        CLEAR     77  75  93 SW5       29.93F
OSAGE BEACH    CLEAR     74  70  87 CALM      29.93S

$$
MOZ051-052-059>065-240600-
...EAST CENTRAL MISSOURI...

CITY           SKY/WX    TMP DP  RH WIND       PRES   REMARKS
ST LOUIS INTL  MOCLDY    83  72  69 NW6       29.90R
SPIRIT OF STL  CLEAR     75  74  96 NW8       29.89R
ST CHARLES     MOCLDY    77  73  87 N8        29.89R

$$
MOZ072>076-082>087-097>100-106>115-240600-
...SOUTH CENTRAL AND SOUTHEAST MISSOURI...

CITY           SKY/WX    TMP DP  RH WIND       PRES   REMARKS
CAPE GIRARDEAU CLEAR     75  70  84 S7        29.89S
FARMINGTON     CLEAR     73  70  90 CALM      29.93R
POPLAR BLUFF   CLOUDY    76  74  93 CALM      29.90S
WEST PLAINS    PTCLDY    72  67  84 CALM      29.96R

$$




USA.gov is the U.S. government's official web portal to all federal, state and local government web resources and services.